Time,TemperatureF,DewpointF,PressureIn,WindDirection,WindDirectionDegrees,WindSpeedMPH,WindSpeedGustMPH,Humidity,HourlyPrecipIn,Conditions,Clouds,dailyrainin,SoftwareType,DateUTC
2013-02-03 00:00:00,28.2,17.3,29.12,SSW,204,3.6,3.6,63,0.00,,BKN,0.00,VWS V13.01,2013-02-03 05:00:00,
2013-02-03 00:01:00,28.2,17.3,29.12,SSW,204,0.0,4.0,63,0.00,,BKN,0.00,VWS V13.01,2013-02-03 05:01:00,
2013-02-03 00:03:00,28.2,17.3,29.12,SSW,213,4.9,4.9,63,0.00,,BKN,0.00,VWS V13.01,2013-02-03 05:03:00,
2013-02-03 00:08:00,28.2,17.3,29.12,SW,233,4.0,5.8,63,0.00,,BKN,0.00,VWS V13.01,2013-02-03 05:08:00,
2013-02-03 00:13:00,28.2,17.3,29.12,SW,218,4.9,5.4,63,0.00,,BKN,0.00,VWS V13.01,2013-02-03 05:13:00,
2013-02-03 00:18:00,28.2,17.3,29.12,SW,219,5.4,5.4,63,0.00,,BKN,0.00,VWS V13.01,2013-02-03 05:18:00,
2013-02-03 00:23:00,28.2,17.3,29.12,SW,229,5.8,5.8,63,0.00,,BKN,0.00,VWS V13.01,2013-02-03 05:23:00,
2013-02-03 00:28:00,28.2,17.3,29.12,SW,216,4.0,4.0,63,0.00,,BKN,0.00,VWS V13.01,2013-02-03 05:28:00,
2013-02-03 00:33:00,28.2,17.3,29.12,SW,228,4.0,5.4,63,0.00,,BKN,0.00,VWS V13.01,2013-02-03 05:33:00,
2013-02-03 00:38:00,28.0,17.1,29.12,WSW,252,3.6,3.6,63,0.00,,BKN,0.00,VWS V13.01,2013-02-03 05:38:00,
2013-02-03 00:43:00,28.0,17.1,29.12,SSW,212,4.0,5.8,63,0.00,,BKN,0.00,VWS V13.01,2013-02-03 05:43:00,
2013-02-03 00:48:00,28.0,17.1,29.12,WSW,243,0.0,2.7,63,0.00,,BKN,0.00,VWS V13.01,2013-02-03 05:48:00,
2013-02-03 00:53:00,28.0,17.5,29.12,SSW,210,4.0,4.0,64,0.00,,BKN,0.00,VWS V13.01,2013-02-03 05:53:00,
2013-02-03 00:58:00,28.0,17.5,29.12,SSW,208,3.6,4.5,64,0.00,,BKN,0.00,VWS V13.01,2013-02-03 05:58:00,
2013-02-03 01:03:00,27.9,17.3,29.09,West,261,0.0,0.0,64,0.00,,BKN,0.00,VWS V13.01,2013-02-03 06:03:00,
2013-02-03 01:08:00,27.9,17.3,29.09,WSW,251,0.0,0.0,64,0.00,,BKN,0.00,VWS V13.01,2013-02-03 06:08:00,
2013-02-03 01:13:00,27.9,17.3,29.09,SW,226,2.7,2.7,64,0.00,,BKN,0.00,VWS V13.01,2013-02-03 06:13:00,
2013-02-03 01:18:00,27.9,17.3,29.09,WSW,241,2.7,2.7,64,0.00,,BKN,0.00,VWS V13.01,2013-02-03 06:18:00,
2013-02-03 01:23:00,27.7,17.5,29.09,WSW,240,3.1,3.1,65,0.00,,BKN,0.00,VWS V13.01,2013-02-03 06:23:00,
2013-02-03 01:28:00,27.7,17.5,29.09,WSW,240,2.7,3.6,65,0.00,,BKN,0.00,VWS V13.01,2013-02-03 06:28:00,
2013-02-03 01:33:00,27.7,17.5,29.09,WSW,241,0.0,0.0,65,0.00,,BKN,0.00,VWS V13.01,2013-02-03 06:33:00,
2013-02-03 01:38:00,27.7,17.5,29.09,WSW,240,0.0,3.1,65,0.00,,BKN,0.00,VWS V13.01,2013-02-03 06:38:00,
2013-02-03 01:42:00,27.7,17.5,29.09,WSW,241,0.0,0.0,65,0.00,,BKN,0.00,VWS V13.01,2013-02-03 06:42:00,
2013-02-03 01:47:00,27.7,17.5,29.09,WSW,240,0.0,0.0,65,0.00,,BKN,0.00,VWS V13.01,2013-02-03 06:47:00,
2013-02-03 01:52:00,27.5,17.3,29.09,WSW,240,0.0,2.7,65,0.00,,BKN,0.00,VWS V13.01,2013-02-03 06:52:00,
2013-02-03 01:57:00,27.5,17.3,29.09,WSW,240,0.0,0.0,65,0.00,,BKN,0.00,VWS V13.01,2013-02-03 06:57:00,
2013-02-03 02:02:00,27.5,17.3,29.09,WSW,240,0.0,0.0,65,0.00,,BKN,0.00,VWS V13.01,2013-02-03 07:02:00,
2013-02-03 02:07:00,27.5,17.3,29.09,WSW,241,0.0,0.0,65,0.00,,BKN,0.00,VWS V13.01,2013-02-03 07:07:00,
2013-02-03 02:12:00,27.3,17.1,29.09,WSW,240,0.0,0.0,65,0.00,,BKN,0.00,VWS V13.01,2013-02-03 07:12:00,
2013-02-03 02:17:00,27.3,17.1,29.09,WSW,240,0.0,0.0,65,0.00,,BKN,0.00,VWS V13.01,2013-02-03 07:17:00,
2013-02-03 02:22:00,27.1,17.0,29.09,WSW,240,0.0,0.0,65,0.00,,BKN,0.00,VWS V13.01,2013-02-03 07:22:00,
2013-02-03 02:27:00,27.1,17.0,29.09,WSW,240,0.0,0.0,65,0.00,,BKN,0.00,VWS V13.01,2013-02-03 07:27:00,
2013-02-03 02:32:00,27.1,17.0,29.06,WSW,240,0.0,0.0,65,0.00,,BKN,0.00,VWS V13.01,2013-02-03 07:32:00,
2013-02-03 02:37:00,27.1,17.0,29.06,WSW,240,0.0,0.0,65,0.00,,BKN,0.00,VWS V13.01,2013-02-03 07:37:00,
2013-02-03 02:42:00,27.1,17.0,29.06,WSW,240,0.0,0.0,65,0.00,,BKN,0.00,VWS V13.01,2013-02-03 07:42:00,
2013-02-03 02:47:00,27.3,17.1,29.06,WSW,240,0.0,2.7,65,0.00,,BKN,0.00,VWS V13.01,2013-02-03 07:47:00,
2013-02-03 02:52:00,27.3,17.5,29.06,WSW,240,0.0,0.0,66,0.00,,BKN,0.00,VWS V13.01,2013-02-03 07:52:00,
2013-02-03 02:57:00,27.3,17.5,29.06,WSW,240,0.0,0.0,66,0.00,,BKN,0.00,VWS V13.01,2013-02-03 07:57:00,
2013-02-03 03:02:00,27.1,17.3,29.06,WSW,240,3.1,3.6,66,0.00,,BKN,0.00,VWS V13.01,2013-02-03 08:02:00,
2013-02-03 03:07:00,27.1,17.3,29.06,WSW,241,0.0,2.7,66,0.00,,BKN,0.00,VWS V13.01,2013-02-03 08:07:00,
2013-02-03 03:12:00,27.1,17.3,29.06,WSW,240,0.0,3.6,66,0.00,,BKN,0.00,VWS V13.01,2013-02-03 08:12:00,
2013-02-03 03:17:00,27.0,17.1,29.06,WSW,240,3.6,4.0,66,0.00,,BKN,0.00,VWS V13.01,2013-02-03 08:17:00,
2013-02-03 03:22:00,27.0,17.1,29.06,WSW,240,0.0,3.1,66,0.00,,BKN,0.00,VWS V13.01,2013-02-03 08:22:00,
2013-02-03 03:27:00,26.8,17.3,29.06,WSW,240,0.0,3.1,67,0.00,,BKN,0.00,VWS V13.01,2013-02-03 08:27:00,
2013-02-03 03:32:00,26.6,16.8,29.06,WSW,240,3.1,3.1,66,0.00,,BKN,0.00,VWS V13.01,2013-02-03 08:32:00,
2013-02-03 03:37:00,26.4,17.0,29.06,WSW,240,2.7,3.6,67,0.00,,BKN,0.00,VWS V13.01,2013-02-03 08:37:00,
2013-02-03 03:42:00,26.2,16.4,29.06,WSW,241,0.0,3.1,66,0.00,,BKN,0.00,VWS V13.01,2013-02-03 08:42:00,
2013-02-03 03:47:00,26.2,16.8,29.03,WSW,240,2.7,3.6,67,0.00,,BKN,0.00,VWS V13.01,2013-02-03 08:47:00,
2013-02-03 03:52:00,26.2,16.8,29.03,WSW,240,0.0,0.0,67,0.00,,BKN,0.00,VWS V13.01,2013-02-03 08:52:00,
2013-02-03 03:57:00,26.2,16.8,29.03,WSW,240,2.7,3.1,67,0.00,,BKN,0.00,VWS V13.01,2013-02-03 08:57:00,
2013-02-03 04:02:00,26.2,16.8,29.03,WSW,240,2.7,2.7,67,0.00,,BKN,0.00,VWS V13.01,2013-02-03 09:02:00,
2013-02-03 04:07:00,26.2,16.8,29.03,WSW,240,0.0,0.0,67,0.00,,BKN,0.00,VWS V13.01,2013-02-03 09:07:00,
2013-02-03 04:12:00,26.2,16.8,29.03,WSW,241,0.0,0.0,67,0.00,,BKN,0.00,VWS V13.01,2013-02-03 09:12:00,
2013-02-03 04:17:00,26.2,16.8,29.03,WSW,240,0.0,0.0,67,0.00,,BKN,0.00,VWS V13.01,2013-02-03 09:17:00,
2013-02-03 04:22:00,26.2,16.8,29.03,WSW,240,0.0,0.0,67,0.00,,BKN,0.00,VWS V13.01,2013-02-03 09:22:00,
2013-02-03 04:27:00,26.2,16.8,29.03,WSW,240,0.0,0.0,67,0.00,,BKN,0.00,VWS V13.01,2013-02-03 09:27:00,
2013-02-03 04:32:00,26.2,16.8,29.03,WSW,240,0.0,0.0,67,0.00,,BKN,0.00,VWS V13.01,2013-02-03 09:32:00,
2013-02-03 04:37:00,26.2,16.8,29.03,WSW,241,3.1,3.6,67,0.00,,BKN,0.00,VWS V13.01,2013-02-03 09:37:00,
2013-02-03 04:42:00,26.1,16.6,29.03,WSW,240,0.0,0.0,67,0.00,,BKN,0.00,VWS V13.01,2013-02-03 09:42:00,
2013-02-03 04:47:00,25.9,16.5,29.03,WSW,240,3.1,3.6,67,0.00,,BKN,0.00,VWS V13.01,2013-02-03 09:47:00,
2013-02-03 04:52:00,25.9,16.5,29.03,WSW,241,2.7,3.1,67,0.00,,BKN,0.00,VWS V13.01,2013-02-03 09:52:00,
2013-02-03 04:57:00,25.9,16.5,29.03,WSW,240,2.7,3.1,67,0.00,,BKN,0.00,VWS V13.01,2013-02-03 09:57:00,
2013-02-03 05:02:00,25.9,16.5,29.03,WSW,240,0.0,0.0,67,0.00,,BKN,0.00,VWS V13.01,2013-02-03 10:02:00,
2013-02-03 05:07:00,25.7,16.3,29.03,WSW,240,0.0,0.0,67,0.00,,BKN,0.00,VWS V13.01,2013-02-03 10:07:00,
2013-02-03 05:12:00,25.7,16.3,29.03,WSW,241,0.0,0.0,67,0.00,,BKN,0.00,VWS V13.01,2013-02-03 10:12:00,
2013-02-03 05:17:00,25.7,16.3,29.03,WSW,240,0.0,0.0,67,0.00,,BKN,0.00,VWS V13.01,2013-02-03 10:17:00,
2013-02-03 05:22:00,25.7,16.6,29.03,WSW,240,0.0,0.0,68,0.00,,BKN,0.00,VWS V13.01,2013-02-03 10:22:00,
2013-02-03 05:27:00,25.7,16.6,29.03,WSW,240,0.0,3.1,68,0.00,,BKN,0.00,VWS V13.01,2013-02-03 10:27:00,
2013-02-03 05:32:00,25.7,16.6,29.03,ESE,123,3.6,4.5,68,0.00,,BKN,0.00,VWS V13.01,2013-02-03 10:32:00,
2013-02-03 05:37:00,25.5,16.8,29.03,ESE,119,2.7,2.7,69,0.00,,BKN,0.00,VWS V13.01,2013-02-03 10:37:00,
2013-02-03 05:42:00,25.5,16.8,29.03,ESE,119,0.0,0.0,69,0.00,,BKN,0.00,VWS V13.01,2013-02-03 10:42:00,
2013-02-03 05:47:00,25.5,16.8,29.03,ESE,119,2.7,2.7,69,0.00,,BKN,0.00,VWS V13.01,2013-02-03 10:47:00,
2013-02-03 05:52:00,25.5,16.8,29.03,ESE,119,2.7,3.1,69,0.00,,BKN,0.00,VWS V13.01,2013-02-03 10:52:00,
2013-02-03 05:57:00,25.5,16.8,29.03,ENE,71,3.1,3.6,69,0.00,,BKN,0.00,VWS V13.01,2013-02-03 10:57:00,
2013-02-03 06:02:00,25.3,16.6,29.03,ENE,71,0.0,2.7,69,0.00,,BKN,0.00,VWS V13.01,2013-02-03 11:02:00,
2013-02-03 06:07:00,25.3,16.9,29.03,ENE,71,2.7,2.7,70,0.00,,BKN,0.00,VWS V13.01,2013-02-03 11:07:00,
2013-02-03 06:12:00,25.3,17.3,29.03,ENE,71,0.0,0.0,71,0.00,,BKN,0.00,VWS V13.01,2013-02-03 11:12:00,
2013-02-03 06:17:00,25.2,17.1,29.03,ENE,71,0.0,0.0,71,0.00,,BKN,0.00,VWS V13.01,2013-02-03 11:17:00,
2013-02-03 06:22:00,25.0,16.9,29.03,ENE,71,0.0,0.0,71,0.00,,BKN,0.00,VWS V13.01,2013-02-03 11:22:00,
2013-02-03 06:27:00,25.0,17.2,29.03,ENE,71,0.0,0.0,72,0.00,,BKN,0.00,VWS V13.01,2013-02-03 11:27:00,
2013-02-03 06:32:00,24.8,17.1,29.03,ENE,71,3.6,4.0,72,0.00,,BKN,0.00,VWS V13.01,2013-02-03 11:32:00,
2013-02-03 06:37:00,24.6,17.2,29.03,ENE,71,2.7,2.7,73,0.00,,BKN,0.00,VWS V13.01,2013-02-03 11:37:00,
2013-02-03 06:42:00,24.6,17.2,29.03,ENE,71,0.0,0.0,73,0.00,,BKN,0.00,VWS V13.01,2013-02-03 11:42:00,
2013-02-03 06:47:00,24.6,17.2,29.03,ENE,71,0.0,2.7,73,0.00,,BKN,0.00,VWS V13.01,2013-02-03 11:47:00,
2013-02-03 06:52:00,24.6,17.2,29.03,ENE,71,0.0,0.0,73,0.00,,BKN,0.00,VWS V13.01,2013-02-03 11:52:00,
2013-02-03 06:57:00,24.4,17.0,29.03,ENE,71,2.7,2.7,73,0.00,,BKN,0.00,VWS V13.01,2013-02-03 11:57:00,
2013-02-03 07:02:00,24.4,17.0,29.03,ENE,71,3.1,3.1,73,0.00,,BKN,0.00,VWS V13.01,2013-02-03 12:02:00,
2013-02-03 07:07:00,24.4,17.0,29.03,ENE,71,4.0,4.0,73,0.00,,BKN,0.00,VWS V13.01,2013-02-03 12:07:00,
2013-02-03 07:12:00,24.3,16.9,29.03,ENE,71,0.0,0.0,73,0.00,,BKN,0.00,VWS V13.01,2013-02-03 12:12:00,
2013-02-03 07:17:00,24.3,16.9,29.03,ENE,71,0.0,0.0,73,0.00,,BKN,0.00,VWS V13.01,2013-02-03 12:17:00,
2013-02-03 07:22:00,24.3,16.9,29.03,ENE,71,0.0,0.0,73,0.00,,BKN,0.00,VWS V13.01,2013-02-03 12:22:00,
2013-02-03 07:27:00,24.3,16.9,29.03,ENE,71,0.0,0.0,73,0.00,,BKN,0.00,VWS V13.01,2013-02-03 12:27:00,
2013-02-03 07:32:00,24.3,16.9,29.03,ENE,71,0.0,0.0,73,0.00,,BKN,0.00,VWS V13.01,2013-02-03 12:32:00,
2013-02-03 07:37:00,24.4,17.0,29.03,ENE,71,3.1,3.1,73,0.00,,BKN,0.00,VWS V13.01,2013-02-03 12:37:00,
2013-02-03 07:42:00,24.4,17.0,29.03,ENE,71,0.0,0.0,73,0.00,,BKN,0.00,VWS V13.01,2013-02-03 12:42:00,
2013-02-03 07:47:00,24.4,17.0,29.03,ENE,71,0.0,0.0,73,0.00,,BKN,0.00,VWS V13.01,2013-02-03 12:47:00,
2013-02-03 07:52:00,24.4,17.0,29.03,ENE,71,0.0,0.0,73,0.00,,BKN,0.00,VWS V13.01,2013-02-03 12:52:00,
2013-02-03 07:57:00,24.4,17.0,29.03,ENE,71,0.0,0.0,73,0.00,,BKN,0.00,VWS V13.01,2013-02-03 12:57:00,
2013-02-03 08:02:00,24.6,17.2,29.06,ENE,71,0.0,0.0,73,0.00,,BKN,0.00,VWS V13.01,2013-02-03 13:02:00,
2013-02-03 08:07:00,24.6,17.2,29.06,ENE,71,0.0,0.0,73,0.00,,BKN,0.00,VWS V13.01,2013-02-03 13:07:00,
2013-02-03 08:12:00,24.6,17.2,29.06,ENE,71,2.7,2.7,73,0.00,,BKN,0.00,VWS V13.01,2013-02-03 13:12:00,
2013-02-03 08:17:00,24.6,17.2,29.06,ENE,71,0.0,3.1,73,0.00,,BKN,0.00,VWS V13.01,2013-02-03 13:17:00,
2013-02-03 08:21:00,24.8,17.4,29.06,ENE,71,0.0,0.0,73,0.00,,BKN,0.00,VWS V13.01,2013-02-03 13:21:00,
2013-02-03 08:26:00,24.8,17.4,29.06,ENE,71,0.0,0.0,73,0.00,,BKN,0.00,VWS V13.01,2013-02-03 13:26:00,
2013-02-03 08:31:00,25.0,17.9,29.06,ENE,71,0.0,0.0,74,0.00,,BKN,0.00,VWS V13.01,2013-02-03 13:31:00,
2013-02-03 08:36:00,25.0,17.9,29.06,ENE,71,0.0,0.0,74,0.00,,BKN,0.00,VWS V13.01,2013-02-03 13:36:00,
2013-02-03 08:41:00,25.2,18.0,29.06,ENE,71,0.0,0.0,74,0.00,,BKN,0.00,VWS V13.01,2013-02-03 13:41:00,
2013-02-03 08:46:00,25.2,18.0,29.06,ENE,71,0.0,0.0,74,0.00,,BKN,0.00,VWS V13.01,2013-02-03 13:46:00,
2013-02-03 08:51:00,25.3,18.2,29.06,ENE,71,0.0,0.0,74,0.00,,BKN,0.00,VWS V13.01,2013-02-03 13:51:00,
2013-02-03 08:56:00,25.5,18.4,29.06,ENE,71,0.0,0.0,74,0.00,,BKN,0.00,VWS V13.01,2013-02-03 13:56:00,
2013-02-03 09:01:00,25.5,18.4,29.06,ENE,71,0.0,0.0,74,0.00,,BKN,0.00,VWS V13.01,2013-02-03 14:01:00,
2013-02-03 09:06:00,25.5,18.4,29.06,ENE,71,0.0,0.0,74,0.00,,BKN,0.00,VWS V13.01,2013-02-03 14:06:00,
2013-02-03 09:11:00,25.5,18.4,29.06,ENE,71,0.0,0.0,74,0.00,,BKN,0.00,VWS V13.01,2013-02-03 14:11:00,
2013-02-03 09:16:00,25.7,18.6,29.03,ENE,71,0.0,0.0,74,0.00,,BKN,0.00,VWS V13.01,2013-02-03 14:16:00,
2013-02-03 09:21:00,25.7,18.6,29.03,NE,50,0.0,0.0,74,0.00,,BKN,0.00,VWS V13.01,2013-02-03 14:21:00,
2013-02-03 09:26:00,25.7,18.6,29.03,NE,50,3.1,3.1,74,0.00,,BKN,0.00,VWS V13.01,2013-02-03 14:26:00,
2013-02-03 09:31:00,25.9,18.8,29.03,NE,50,0.0,0.0,74,0.00,,BKN,0.00,VWS V13.01,2013-02-03 14:31:00,
2013-02-03 09:36:00,25.9,18.8,29.03,NE,49,0.0,0.0,74,0.00,,BKN,0.00,VWS V13.01,2013-02-03 14:36:00,
2013-02-03 09:41:00,26.1,18.9,29.03,NE,49,0.0,0.0,74,0.00,,BKN,0.00,VWS V13.01,2013-02-03 14:41:00,
2013-02-03 09:46:00,26.1,18.9,29.03,NE,50,0.0,2.7,74,0.00,,BKN,0.00,VWS V13.01,2013-02-03 14:46:00,
2013-02-03 09:51:00,26.2,19.1,29.03,NE,50,0.0,0.0,74,0.00,,BKN,0.00,VWS V13.01,2013-02-03 14:51:00,
2013-02-03 09:56:00,26.2,19.1,29.03,NE,50,2.7,3.1,74,0.00,,BKN,0.00,VWS V13.01,2013-02-03 14:56:00,
2013-02-03 10:01:00,26.4,19.3,29.03,NE,50,3.1,3.6,74,0.00,,BKN,0.00,VWS V13.01,2013-02-03 15:01:00,
2013-02-03 10:06:00,26.4,19.6,29.03,NE,50,3.1,3.6,75,0.00,,BKN,0.00,VWS V13.01,2013-02-03 15:06:00,
2013-02-03 10:11:00,26.6,19.8,29.03,NE,50,3.6,3.6,75,0.00,,BKN,0.00,VWS V13.01,2013-02-03 15:11:00,
2013-02-03 10:16:00,26.8,19.9,29.03,NE,49,0.0,2.7,75,0.00,,BKN,0.00,VWS V13.01,2013-02-03 15:16:00,
2013-02-03 10:21:00,27.1,20.6,29.03,NE,49,0.0,3.6,76,0.00,,BKN,0.00,VWS V13.01,2013-02-03 15:21:00,
2013-02-03 10:26:00,27.1,20.6,29.03,NE,49,3.6,4.0,76,0.00,,BKN,0.00,VWS V13.01,2013-02-03 15:26:00,
2013-02-03 10:31:00,27.1,20.6,29.03,NE,43,0.0,0.0,76,0.00,,BKN,0.00,VWS V13.01,2013-02-03 15:31:00,
2013-02-03 10:36:00,27.5,20.9,29.03,NE,43,0.0,3.1,76,0.00,,BKN,0.00,VWS V13.01,2013-02-03 15:36:00,
2013-02-03 10:41:00,27.7,21.1,29.03,North,351,3.1,4.5,76,0.00,,BKN,0.00,VWS V13.01,2013-02-03 15:41:00,
2013-02-03 10:46:00,27.7,21.1,29.03,NE,46,0.0,0.0,76,0.00,,BKN,0.00,VWS V13.01,2013-02-03 15:46:00,
2013-02-03 10:51:00,28.0,21.5,29.03,NNE,33,0.0,2.7,76,0.00,,BKN,0.00,VWS V13.01,2013-02-03 15:51:00,
2013-02-03 10:56:00,28.0,21.5,29.03,NNW,347,0.0,0.0,76,0.00,,BKN,0.00,VWS V13.01,2013-02-03 15:56:00,
2013-02-03 11:01:00,28.4,21.8,29.03,NNW,347,0.0,0.0,76,0.00,,BKN,0.00,VWS V13.01,2013-02-03 16:01:00,
2013-02-03 11:06:00,28.8,22.5,29.03,NNW,347,0.0,0.0,77,0.00,,BKN,0.00,VWS V13.01,2013-02-03 16:06:00,
2013-02-03 11:11:00,29.1,22.8,29.03,NE,45,3.6,3.6,77,0.00,,BKN,0.00,VWS V13.01,2013-02-03 16:11:00,
2013-02-03 11:16:00,29.5,23.2,29.03,NE,45,0.0,0.0,77,0.00,,BKN,0.00,VWS V13.01,2013-02-03 16:16:00,
2013-02-03 11:21:00,29.7,23.4,29.03,NE,45,0.0,0.0,77,0.00,,BKN,0.00,VWS V13.01,2013-02-03 16:21:00,
2013-02-03 11:26:00,29.7,23.4,29.03,NE,44,0.0,0.0,77,0.00,,BKN,0.00,VWS V13.01,2013-02-03 16:26:00,
2013-02-03 11:31:00,29.8,23.5,29.00,NE,45,0.0,0.0,77,0.00,,BKN,0.00,VWS V13.01,2013-02-03 16:31:00,
2013-02-03 11:36:00,29.8,23.5,29.00,NE,44,0.0,0.0,77,0.00,,BKN,0.00,VWS V13.01,2013-02-03 16:36:00,
2013-02-03 11:41:00,29.8,23.5,29.00,NE,44,0.0,2.7,77,0.00,,BKN,0.00,VWS V13.01,2013-02-03 16:41:00,
2013-02-03 11:46:00,29.8,23.2,29.00,NE,44,0.0,3.6,76,0.00,,BKN,0.00,VWS V13.01,2013-02-03 16:46:00,
2013-02-03 11:51:00,29.7,23.0,29.00,NE,44,2.7,3.1,76,0.00,,BKN,0.00,VWS V13.01,2013-02-03 16:51:00,
2013-02-03 11:56:00,29.7,23.0,29.00,NE,44,3.6,4.5,76,0.00,,BKN,0.00,VWS V13.01,2013-02-03 16:56:00,
2013-02-03 12:01:00,29.7,23.0,29.00,NE,44,0.0,0.0,76,0.00,,BKN,0.00,VWS V13.01,2013-02-03 17:01:00,
2013-02-03 12:06:00,29.7,22.7,29.00,NE,44,3.6,3.6,75,0.00,,BKN,0.00,VWS V13.01,2013-02-03 17:06:00,
2013-02-03 12:11:00,29.7,22.7,29.00,NE,44,0.0,0.0,75,0.00,,BKN,0.00,VWS V13.01,2013-02-03 17:11:00,
2013-02-03 12:16:00,29.8,22.9,29.00,NE,50,0.0,2.7,75,0.00,,BKN,0.00,VWS V13.01,2013-02-03 17:16:00,
2013-02-03 12:21:00,29.8,22.9,29.00,NE,50,0.0,0.0,75,0.00,,BKN,0.00,VWS V13.01,2013-02-03 17:21:00,
2013-02-03 12:26:00,30.0,23.4,29.00,NE,50,3.6,4.0,76,0.00,,BKN,0.00,VWS V13.01,2013-02-03 17:26:00,
2013-02-03 12:31:00,30.0,23.1,29.00,NE,50,3.1,3.6,75,0.00,,BKN,0.00,VWS V13.01,2013-02-03 17:31:00,
2013-02-03 12:36:00,30.0,23.1,29.00,NE,50,0.0,0.0,75,0.00,,BKN,0.00,VWS V13.01,2013-02-03 17:36:00,
2013-02-03 12:41:00,30.2,23.2,29.00,NE,50,2.7,2.7,75,0.00,,BKN,0.00,VWS V13.01,2013-02-03 17:41:00,
2013-02-03 12:46:00,30.2,23.2,28.97,NE,50,0.0,0.0,75,0.00,,BKN,0.00,VWS V13.01,2013-02-03 17:46:00,
2013-02-03 12:51:00,30.4,23.4,28.97,NE,48,5.4,5.4,75,0.00,,BKN,0.00,VWS V13.01,2013-02-03 17:51:00,
2013-02-03 12:56:00,30.6,23.6,28.97,East,90,4.0,4.0,75,0.00,,BKN,0.00,VWS V13.01,2013-02-03 17:56:00,
2013-02-03 13:01:00,30.7,23.8,28.97,East,84,3.1,3.6,75,0.00,,BKN,0.00,VWS V13.01,2013-02-03 18:01:00,
2013-02-03 13:06:00,30.9,24.3,28.97,ESE,104,2.7,2.7,76,0.00,,BKN,0.00,VWS V13.01,2013-02-03 18:06:00,
2013-02-03 13:11:00,31.3,24.3,28.97,ESE,104,3.6,3.6,75,0.00,,BKN,0.00,VWS V13.01,2013-02-03 18:11:00,
2013-02-03 13:16:00,31.5,24.8,28.97,ESE,104,4.0,4.0,76,0.00,,BKN,0.00,VWS V13.01,2013-02-03 18:16:00,
2013-02-03 13:21:00,32.0,25.3,28.97,ESE,104,0.0,3.1,76,0.00,,BKN,0.00,VWS V13.01,2013-02-03 18:21:00,
2013-02-03 13:26:00,32.2,25.5,28.97,ESE,104,0.0,3.1,76,0.00,,BKN,0.00,VWS V13.01,2013-02-03 18:26:00,
2013-02-03 13:31:00,32.2,25.2,28.94,NE,47,0.0,4.0,75,0.00,,BKN,0.00,VWS V13.01,2013-02-03 18:31:00,
2013-02-03 13:36:00,32.4,25.3,28.94,ESE,115,3.6,4.5,75,0.00,,BKN,0.00,VWS V13.01,2013-02-03 18:36:00,
2013-02-03 13:41:00,32.4,25.0,28.94,ESE,115,0.0,0.0,74,0.00,,BKN,0.00,VWS V13.01,2013-02-03 18:41:00,
2013-02-03 13:46:00,32.5,24.9,28.94,ESE,115,3.6,3.6,73,0.00,,BKN,0.00,VWS V13.01,2013-02-03 18:46:00,
2013-02-03 13:51:00,32.7,24.7,28.94,ESE,115,3.1,4.5,72,0.00,,BKN,0.00,VWS V13.01,2013-02-03 18:51:00,
2013-02-03 13:56:00,32.5,23.5,28.94,ESE,110,3.6,3.6,69,0.00,,BKN,0.00,VWS V13.01,2013-02-03 18:56:00,
2013-02-03 14:01:00,32.5,23.2,28.94,ESE,108,4.0,4.5,68,0.00,,BKN,0.00,VWS V13.01,2013-02-03 19:01:00,
2013-02-03 14:06:00,32.5,22.8,28.94,SE,131,4.5,4.5,67,0.00,,BKN,0.00,VWS V13.01,2013-02-03 19:06:00,
2013-02-03 14:11:00,32.4,22.6,28.94,East,93,0.0,2.7,67,0.00,,BKN,0.00,VWS V13.01,2013-02-03 19:11:00,
2013-02-03 14:16:00,32.4,22.3,28.94,SSE,163,0.0,0.0,66,0.00,,BKN,0.00,VWS V13.01,2013-02-03 19:16:00,
2013-02-03 14:21:00,32.5,22.5,28.94,ESE,111,2.7,2.7,66,0.00,,BKN,0.00,VWS V13.01,2013-02-03 19:21:00,
2013-02-03 14:26:00,32.4,22.3,28.94,ESE,111,2.7,2.7,66,0.00,,BKN,0.00,VWS V13.01,2013-02-03 19:26:00,
2013-02-03 14:31:00,32.5,22.5,28.94,ESE,111,2.7,2.7,66,0.00,,BKN,0.00,VWS V13.01,2013-02-03 19:31:00,
2013-02-03 14:36:00,32.5,22.5,28.94,ESE,111,2.7,2.7,66,0.00,,BKN,0.00,VWS V13.01,2013-02-03 19:36:00,
2013-02-03 14:40:00,32.5,22.5,28.94,ESE,111,2.7,2.7,66,0.00,,BKN,0.00,VWS V13.01,2013-02-03 19:40:00,
2013-02-03 14:45:00,32.4,22.3,28.94,ESE,111,2.7,2.7,66,0.00,,BKN,0.00,VWS V13.01,2013-02-03 19:45:00,
2013-02-03 14:50:00,32.4,22.3,28.94,ESE,111,2.7,2.7,66,0.00,,BKN,0.00,VWS V13.01,2013-02-03 19:50:00,
2013-02-03 14:55:00,32.5,22.5,28.94,ESE,111,2.7,2.7,66,0.00,,BKN,0.00,VWS V13.01,2013-02-03 19:55:00,
2013-02-03 15:00:00,32.7,23.0,28.94,ESE,111,2.7,2.7,67,0.00,,BKN,0.00,VWS V13.01,2013-02-03 20:00:00,
2013-02-03 15:05:00,32.9,23.2,28.94,ESE,111,2.7,2.7,67,0.00,,BKN,0.00,VWS V13.01,2013-02-03 20:05:00,
2013-02-03 15:10:00,32.7,22.6,28.94,ESE,111,2.7,2.7,66,0.00,,BKN,0.00,VWS V13.01,2013-02-03 20:10:00,
2013-02-03 15:15:00,32.7,21.9,28.94,ESE,111,2.7,2.7,64,0.00,,BKN,0.00,VWS V13.01,2013-02-03 20:15:00,
2013-02-03 15:20:00,32.7,21.9,28.94,ESE,111,2.7,2.7,64,0.00,,BKN,0.00,VWS V13.01,2013-02-03 20:20:00,
2013-02-03 15:25:00,32.7,22.3,28.94,ESE,111,2.7,2.7,65,0.00,,BKN,0.00,VWS V13.01,2013-02-03 20:25:00,
2013-02-03 15:30:00,32.7,22.6,28.94,ESE,111,2.7,2.7,66,0.00,,BKN,0.00,VWS V13.01,2013-02-03 20:30:00,
2013-02-03 15:35:00,32.5,22.8,28.94,ESE,111,2.7,2.7,67,0.00,,BKN,0.00,VWS V13.01,2013-02-03 20:35:00,
2013-02-03 15:40:00,32.5,23.2,28.94,ESE,111,2.7,2.7,68,0.00,,BKN,0.00,VWS V13.01,2013-02-03 20:40:00,
2013-02-03 15:45:00,32.4,23.0,28.94,ESE,111,2.7,2.7,68,0.00,,BKN,0.00,VWS V13.01,2013-02-03 20:45:00,
2013-02-03 15:50:00,32.4,23.0,28.94,ESE,111,2.7,2.7,68,0.00,,BKN,0.00,VWS V13.01,2013-02-03 20:50:00,
2013-02-03 15:55:00,32.5,23.2,28.94,ESE,111,2.7,2.7,68,0.00,,BKN,0.00,VWS V13.01,2013-02-03 20:55:00,
2013-02-03 16:00:00,32.7,23.3,28.94,ESE,111,2.7,2.7,68,0.00,,BKN,0.00,VWS V13.01,2013-02-03 21:00:00,
2013-02-03 16:05:00,32.5,23.2,28.94,ESE,111,2.7,2.7,68,0.00,,BKN,0.00,VWS V13.01,2013-02-03 21:05:00,
2013-02-03 16:10:00,32.7,23.3,28.94,ESE,111,2.7,2.7,68,0.00,,BKN,0.00,VWS V13.01,2013-02-03 21:10:00,
2013-02-03 16:15:00,32.7,23.3,28.94,ESE,111,2.7,2.7,68,0.00,,BKN,0.00,VWS V13.01,2013-02-03 21:15:00,
2013-02-03 16:20:00,32.7,23.3,28.94,ESE,111,2.7,2.7,68,0.00,,BKN,0.00,VWS V13.01,2013-02-03 21:20:00,
2013-02-03 16:25:00,32.7,23.3,28.94,ESE,111,2.7,2.7,68,0.00,,BKN,0.00,VWS V13.01,2013-02-03 21:25:00,
2013-02-03 16:30:00,32.5,23.2,28.94,ESE,111,2.7,2.7,68,0.00,,BKN,0.00,VWS V13.01,2013-02-03 21:30:00,
2013-02-03 16:35:00,32.5,23.2,28.94,ESE,111,2.7,2.7,68,0.00,,BKN,0.00,VWS V13.01,2013-02-03 21:35:00,
2013-02-03 16:40:00,32.5,23.2,28.94,ESE,111,2.7,2.7,68,0.00,,BKN,0.00,VWS V13.01,2013-02-03 21:40:00,
2013-02-03 16:45:00,32.4,23.0,28.94,ESE,111,2.7,2.7,68,0.00,,BKN,0.00,VWS V13.01,2013-02-03 21:45:00,
2013-02-03 16:50:00,32.4,23.3,28.94,ESE,111,2.7,2.7,69,0.00,,BKN,0.00,VWS V13.01,2013-02-03 21:50:00,
2013-02-03 16:55:00,32.4,23.3,28.94,ESE,111,2.7,2.7,69,0.00,,BKN,0.00,VWS V13.01,2013-02-03 21:55:00,
2013-02-03 17:00:00,32.2,23.2,28.94,ESE,111,2.7,2.7,69,0.00,,BKN,0.00,VWS V13.01,2013-02-03 22:00:00,
2013-02-03 17:05:00,32.0,23.0,28.94,ESE,111,2.7,2.7,69,0.00,,BKN,0.00,VWS V13.01,2013-02-03 22:05:00,
2013-02-03 17:10:00,31.8,22.8,28.94,ESE,111,2.7,2.7,69,0.00,,BKN,0.00,VWS V13.01,2013-02-03 22:10:00,
2013-02-03 17:15:00,31.6,22.6,28.94,ESE,111,2.7,2.7,69,0.00,,BKN,0.00,VWS V13.01,2013-02-03 22:15:00,
2013-02-03 17:20:00,31.5,22.5,28.94,ESE,111,2.7,2.7,69,0.00,,BKN,0.00,VWS V13.01,2013-02-03 22:20:00,
2013-02-03 17:25:00,31.5,22.8,28.94,ESE,111,2.7,2.7,70,0.00,,BKN,0.00,VWS V13.01,2013-02-03 22:25:00,
2013-02-03 17:30:00,31.3,22.6,28.94,ESE,111,2.7,2.7,70,0.00,,BKN,0.00,VWS V13.01,2013-02-03 22:30:00,
2013-02-03 17:35:00,31.3,22.6,28.94,ESE,111,2.7,2.7,70,0.00,,BKN,0.00,VWS V13.01,2013-02-03 22:35:00,
2013-02-03 17:40:00,31.1,22.5,28.94,ESE,111,2.7,2.7,70,0.00,,BKN,0.00,VWS V13.01,2013-02-03 22:40:00,
2013-02-03 17:45:00,31.1,22.5,28.94,ESE,111,2.7,2.7,70,0.00,,BKN,0.00,VWS V13.01,2013-02-03 22:45:00,
2013-02-03 17:50:00,31.1,22.8,28.94,ESE,111,2.7,2.7,71,0.00,,BKN,0.00,VWS V13.01,2013-02-03 22:50:00,
2013-02-03 17:55:00,31.1,22.8,28.94,ESE,111,2.7,2.7,71,0.00,,BKN,0.00,VWS V13.01,2013-02-03 22:55:00,
2013-02-03 18:00:00,31.1,22.8,28.94,ESE,111,2.7,2.7,71,0.00,,BKN,0.00,VWS V13.01,2013-02-03 23:00:00,
2013-02-03 18:05:00,31.1,22.8,28.94,ESE,111,2.7,2.7,71,0.00,,BKN,0.00,VWS V13.01,2013-02-03 23:05:00,
2013-02-03 18:10:00,31.1,22.8,28.94,ESE,111,2.7,2.7,71,0.00,,BKN,0.00,VWS V13.01,2013-02-03 23:10:00,
2013-02-03 18:15:00,31.1,22.8,28.97,ESE,111,2.7,2.7,71,0.00,,BKN,0.00,VWS V13.01,2013-02-03 23:15:00,
2013-02-03 18:20:00,31.5,23.2,28.97,ESE,111,2.7,2.7,71,0.00,,BKN,0.00,VWS V13.01,2013-02-03 23:20:00,
2013-02-03 18:25:00,32.2,23.5,28.97,ESE,111,2.7,2.7,70,0.00,,BKN,0.00,VWS V13.01,2013-02-03 23:25:00,
2013-02-03 18:30:00,32.7,19.6,28.97,ESE,111,2.7,2.7,58,0.00,,BKN,0.00,VWS V13.01,2013-02-03 23:30:00,
2013-02-03 18:35:00,33.1,18.3,28.97,ESE,111,2.7,2.7,54,0.00,,BKN,0.00,VWS V13.01,2013-02-03 23:35:00,
2013-02-03 18:40:00,32.9,18.1,28.97,ESE,111,2.7,2.7,54,0.00,,BKN,0.00,VWS V13.01,2013-02-03 23:40:00,
2013-02-03 18:45:00,32.5,17.3,28.97,ESE,111,2.7,2.7,53,0.00,,BKN,0.00,VWS V13.01,2013-02-03 23:45:00,
2013-02-03 18:50:00,33.1,14.1,28.97,ESE,111,2.7,2.7,45,0.00,,BKN,0.00,VWS V13.01,2013-02-03 23:50:00,
2013-02-03 18:55:00,33.4,13.4,28.97,ESE,111,2.7,2.7,43,0.00,,BKN,0.00,VWS V13.01,2013-02-03 23:55:00,
2013-02-03 19:00:00,33.6,13.0,29.00,ESE,111,2.7,2.7,42,0.00,,BKN,0.00,VWS V13.01,2013-02-04 00:00:00,
2013-02-03 19:05:00,33.6,12.4,29.00,ESE,111,2.7,2.7,41,0.00,,BKN,0.00,VWS V13.01,2013-02-04 00:05:00,
2013-02-03 19:10:00,33.6,12.4,29.00,ESE,111,2.7,2.7,41,0.00,,BKN,0.00,VWS V13.01,2013-02-04 00:10:00,
2013-02-03 19:15:00,33.4,12.3,29.00,ESE,111,2.7,2.7,41,0.00,,BKN,0.00,VWS V13.01,2013-02-04 00:15:00,
2013-02-03 19:20:00,33.4,11.7,29.00,ESE,111,2.7,2.7,40,0.00,,BKN,0.00,VWS V13.01,2013-02-04 00:20:00,
2013-02-03 19:25:00,33.3,11.6,29.00,ESE,111,2.7,2.7,40,0.00,,BKN,0.00,VWS V13.01,2013-02-04 00:25:00,
2013-02-03 19:30:00,33.3,11.6,29.00,ESE,111,2.7,2.7,40,0.00,,BKN,0.00,VWS V13.01,2013-02-04 00:30:00,
2013-02-03 19:35:00,33.1,11.4,29.00,ESE,111,2.7,2.7,40,0.00,,BKN,0.00,VWS V13.01,2013-02-04 00:35:00,
2013-02-03 19:40:00,33.1,11.4,29.00,ESE,111,2.7,2.7,40,0.00,,BKN,0.00,VWS V13.01,2013-02-04 00:40:00,
2013-02-03 19:45:00,32.9,11.2,29.00,ESE,111,2.7,2.7,40,0.00,,BKN,0.00,VWS V13.01,2013-02-04 00:45:00,
2013-02-03 19:50:00,32.9,11.2,29.00,ESE,111,2.7,2.7,40,0.00,,BKN,0.00,VWS V13.01,2013-02-04 00:50:00,
2013-02-03 19:55:00,32.7,11.1,29.00,ESE,111,2.7,2.7,40,0.00,,BKN,0.00,VWS V13.01,2013-02-04 00:55:00,
2013-02-03 20:00:00,32.5,10.9,29.03,ESE,111,2.7,2.7,40,0.00,,BKN,0.00,VWS V13.01,2013-02-04 01:00:00,
2013-02-03 20:05:00,32.5,10.9,29.03,ESE,111,2.7,2.7,40,0.00,,BKN,0.00,VWS V13.01,2013-02-04 01:05:00,
2013-02-03 20:10:00,32.5,10.9,29.03,ESE,111,2.7,2.7,40,0.00,,BKN,0.00,VWS V13.01,2013-02-04 01:10:00,
2013-02-03 20:15:00,32.4,10.8,29.03,ESE,111,2.7,2.7,40,0.00,,BKN,0.00,VWS V13.01,2013-02-04 01:15:00,
2013-02-03 20:20:00,32.2,10.6,29.03,ESE,111,2.7,2.7,40,0.00,,BKN,0.00,VWS V13.01,2013-02-04 01:20:00,
2013-02-03 20:25:00,32.0,10.4,29.03,ESE,111,2.7,2.7,40,0.00,,BKN,0.00,VWS V13.01,2013-02-04 01:25:00,
2013-02-03 20:30:00,31.8,10.3,29.03,ESE,111,2.7,2.7,40,0.00,,BKN,0.00,VWS V13.01,2013-02-04 01:30:00,
2013-02-03 20:35:00,31.5,9.9,29.03,ESE,111,2.7,2.7,40,0.00,,BKN,0.00,VWS V13.01,2013-02-04 01:35:00,
2013-02-03 20:40:00,31.3,9.8,29.03,NW,320,11.2,16.8,40,0.00,,BKN,0.00,VWS V13.01,2013-02-04 01:40:00,
2013-02-03 20:45:00,31.3,9.8,29.03,WSW,258,20.1,20.1,40,0.00,,BKN,0.00,VWS V13.01,2013-02-04 01:45:00,
2013-02-03 20:50:00,30.9,10.0,29.03,NW,308,15.9,15.9,41,0.00,,BKN,0.00,VWS V13.01,2013-02-04 01:50:00,
2013-02-03 20:55:00,30.6,9.7,29.03,West,269,8.7,11.0,41,0.00,,BKN,0.00,VWS V13.01,2013-02-04 01:55:00,
2013-02-03 21:00:00,30.4,9.5,29.06,West,268,6.7,7.8,41,0.00,,BKN,0.00,VWS V13.01,2013-02-04 02:00:00,
2013-02-03 21:05:00,30.2,9.4,29.06,NW,307,8.3,10.5,41,0.00,,BKN,0.00,VWS V13.01,2013-02-04 02:05:00,
2013-02-03 21:10:00,30.0,9.2,29.06,NNW,345,4.0,7.8,41,0.00,,BKN,0.00,VWS V13.01,2013-02-04 02:10:00,
2013-02-03 21:15:00,29.7,9.4,29.06,West,263,7.4,11.2,42,0.00,,BKN,0.00,VWS V13.01,2013-02-04 02:15:00,
2013-02-03 21:20:00,29.3,9.6,29.06,NW,323,9.2,9.6,43,0.00,,BKN,0.00,VWS V13.01,2013-02-04 02:20:00,
2013-02-03 21:25:00,28.6,10.4,29.06,West,274,8.7,12.5,46,0.00,,BKN,0.00,VWS V13.01,2013-02-04 02:25:00,
2013-02-03 21:30:00,28.6,10.4,29.06,WSW,255,6.3,7.8,46,0.00,,BKN,0.00,VWS V13.01,2013-02-04 02:30:00,
2013-02-03 21:35:00,28.6,9.4,29.06,NW,314,12.1,12.1,44,0.00,,BKN,0.00,VWS V13.01,2013-02-04 02:35:00,
2013-02-03 21:40:00,29.1,8.9,29.06,West,268,9.2,11.2,42,0.00,,BKN,0.00,VWS V13.01,2013-02-04 02:40:00,
2013-02-03 21:45:00,29.3,9.1,29.06,WSW,250,11.0,11.0,42,0.00,,BKN,0.00,VWS V13.01,2013-02-04 02:45:00,
2013-02-03 21:50:00,29.5,8.7,29.06,WSW,253,7.4,11.2,41,0.00,,BKN,0.00,VWS V13.01,2013-02-04 02:50:00,
2013-02-03 21:55:00,29.7,8.9,29.06,WSW,248,10.1,10.1,41,0.00,,BKN,0.00,VWS V13.01,2013-02-04 02:55:00,
2013-02-03 22:00:00,29.7,8.9,29.06,WSW,248,10.1,10.1,41,0.00,,BKN,0.00,VWS V13.01,2013-02-04 03:00:00,
2013-02-03 22:05:00,29.7,8.9,29.06,WSW,248,10.1,10.1,41,0.00,,BKN,0.00,VWS V13.01,2013-02-04 03:05:00,
2013-02-03 22:10:00,29.5,8.1,29.06,WSW,248,10.1,10.1,40,0.00,,BKN,0.00,VWS V13.01,2013-02-04 03:10:00,
2013-02-03 22:15:00,29.3,8.0,29.09,WSW,248,10.1,10.1,40,0.00,,BKN,0.00,VWS V13.01,2013-02-04 03:15:00,
2013-02-03 22:20:00,29.3,8.0,29.09,WSW,248,10.1,10.1,40,0.00,,BKN,0.00,VWS V13.01,2013-02-04 03:20:00,
2013-02-03 22:25:00,29.1,7.8,29.09,WSW,248,10.1,10.1,40,0.00,,BKN,0.00,VWS V13.01,2013-02-04 03:25:00,
2013-02-03 22:30:00,29.1,7.3,29.09,WSW,248,10.1,10.1,39,0.00,,BKN,0.00,VWS V13.01,2013-02-04 03:30:00,
2013-02-03 22:35:00,29.1,6.7,29.09,WSW,248,10.1,10.1,38,0.00,,BKN,0.00,VWS V13.01,2013-02-04 03:35:00,
2013-02-03 22:40:00,28.9,5.9,29.09,WSW,248,10.1,10.1,37,0.00,,BKN,0.00,VWS V13.01,2013-02-04 03:40:00,
2013-02-03 22:45:00,28.9,5.9,29.09,WSW,248,10.1,10.1,37,0.00,,BKN,0.00,VWS V13.01,2013-02-04 03:45:00,
2013-02-03 22:50:00,28.9,5.9,29.09,WSW,248,10.1,10.1,37,0.00,,BKN,0.00,VWS V13.01,2013-02-04 03:50:00,
2013-02-03 22:55:00,28.8,6.4,29.09,WSW,248,10.1,10.1,38,0.00,,BKN,0.00,VWS V13.01,2013-02-04 03:55:00,
2013-02-03 23:00:00,28.8,6.4,29.06,WSW,248,10.1,10.1,38,0.00,,BKN,0.00,VWS V13.01,2013-02-04 04:00:00,
2013-02-03 23:05:00,28.6,6.2,29.06,WSW,248,10.1,10.1,38,0.00,,BKN,0.00,VWS V13.01,2013-02-04 04:05:00,
2013-02-03 23:10:00,28.4,6.1,29.06,WSW,248,10.1,10.1,38,0.00,,BKN,0.00,VWS V13.01,2013-02-04 04:10:00,
2013-02-03 23:15:00,28.2,5.3,29.09,WSW,248,10.1,10.1,37,0.00,,BKN,0.00,VWS V13.01,2013-02-04 04:15:00,
2013-02-03 23:20:00,28.0,5.1,29.09,WSW,248,10.1,10.1,37,0.00,,BKN,0.00,VWS V13.01,2013-02-04 04:20:00,
2013-02-03 23:25:00,27.9,5.0,29.09,WSW,248,10.1,10.1,37,0.00,,BKN,0.00,VWS V13.01,2013-02-04 04:25:00,
2013-02-03 23:30:00,27.7,4.8,29.09,WSW,248,10.1,10.1,37,0.00,,BKN,0.00,VWS V13.01,2013-02-04 04:30:00,
2013-02-03 23:35:00,27.5,4.7,29.09,WSW,248,10.1,10.1,37,0.00,,BKN,0.00,VWS V13.01,2013-02-04 04:35:00,
2013-02-03 23:40:00,27.3,5.1,29.09,WSW,248,10.1,10.1,38,0.00,,BKN,0.00,VWS V13.01,2013-02-04 04:40:00,
2013-02-03 23:45:00,27.1,4.9,29.09,WSW,248,10.1,10.1,38,0.00,,BKN,0.00,VWS V13.01,2013-02-04 04:45:00,
2013-02-03 23:50:00,27.1,4.9,29.09,WSW,248,10.1,10.1,38,0.00,,BKN,0.00,VWS V13.01,2013-02-04 04:50:00,
2013-02-03 23:55:00,27.1,4.9,29.09,WSW,248,10.1,10.1,38,0.00,,BKN,0.00,VWS V13.01,2013-02-04 04:55:00,